Hourly Weather Godziszka

Today, 17 May, Monday

Time Temperature Precipitation Wind Pressure Humidity
00:00 +9°C° 0 mm 3 mps 745 mmHg 93%
01:00 +8°C° 0 mm 3 mps 745 mmHg 93%
02:00 +8°C° 0 mm 2 mps 745 mmHg 93%
03:00 +8°C° 0 mm 2 mps 745 mmHg 93%
04:00 +8°C° 0 mm 2 mps 745 mmHg 93%
05:00 +9°C° 0 mm 3 mps 745 mmHg 88%
06:00 +11°C° 0 mm 3 mps 745 mmHg 84%
07:00 +13°C° 0 mm 3 mps 745 mmHg 80%
08:00 +14°C° 0.1 mm 3 mps 745 mmHg 73%
09:00 +17°C° 0.1 mm 3 mps 745 mmHg 67%
10:00 +18°C° 0.1 mm 4 mps 745 mmHg 61%
11:00 +19°C° 0.2 mm 4 mps 745 mmHg 60%
12:00 +19°C° 0.2 mm 4 mps 745 mmHg 59%
13:00 +19°C° 0.2 mm 4 mps 745 mmHg 58%
14:00 +19°C° 0.3 mm 3 mps 745 mmHg 61%
15:00 +18°C° 0.3 mm 2 mps 745 mmHg 65%
16:00 +18°C° 0.3 mm 2 mps 745 mmHg 68%
17:00 +17°C° 0.8 mm 2 mps 745 mmHg 75%
18:00 +15°C° 0.8 mm 2 mps 745 mmHg 82%
19:00 +14°C° 0.8 mm 2 mps 745 mmHg 89%
20:00 +13°C° 0.9 mm 2 mps 745 mmHg 92%
21:00 +13°C° 0.9 mm 2 mps 745 mmHg 94%
22:00 +12°C° 0.9 mm 2 mps 745 mmHg 96%
23:00 +12°C° 0.8 mm 2 mps 745 mmHg 96%

Tomorrow, 18 May, Tuesday

Time Temperature Precipitation Wind Pressure Humidity
00:00 +12°C° 0.8 mm 2 mps 745 mmHg 97%
01:00 +12°C° 0.8 mm 2 mps 745 mmHg 97%
02:00 +12°C° 1 mm 2 mps 745 mmHg 97%
03:00 +12°C° 1 mm 2 mps 745 mmHg 97%
04:00 +12°C° 1 mm 2 mps 745 mmHg 98%
05:00 +12°C° 0.8 mm 2 mps 745 mmHg 97%
06:00 +12°C° 0.8 mm 2 mps 746 mmHg 97%
07:00 +12°C° 0.8 mm 2 mps 746 mmHg 97%
08:00 +12°C° 0.2 mm 2 mps 746 mmHg 95%
09:00 +12°C° 0.2 mm 2 mps 746 mmHg 93%
10:00 +12°C° 0.2 mm 3 mps 746 mmHg 91%
11:00 +12°C° 0.2 mm 3 mps 747 mmHg 89%
12:00 +12°C° 0.2 mm 3 mps 747 mmHg 87%
13:00 +13°C° 0.2 mm 3 mps 747 mmHg 85%
14:00 +13°C° 0.2 mm 3 mps 747 mmHg 86%
15:00 +13°C° 0.2 mm 3 mps 747 mmHg 87%
16:00 +12°C° 0.2 mm 3 mps 747 mmHg 87%
17:00 +13°C° 0.1 mm 2 mps 748 mmHg 89%
18:00 +13°C° 0.1 mm 2 mps 748 mmHg 90%
19:00 +13°C° 0.1 mm 2 mps 748 mmHg 92%
20:00 +12°C° 0 mm 2 mps 748 mmHg 93%
21:00 +10°C° 0 mm 2 mps 748 mmHg 94%
22:00 +9°C° 0 mm 2 mps 748 mmHg 95%
23:00 +9°C° 0 mm 2 mps 749 mmHg 95%

Day after tomorrow, 19 May, Wednesday

Time Temperature Precipitation Wind Pressure Humidity
00:00 +9°C° 0 mm 2 mps 749 mmHg 95%
01:00 +8°C° 0 mm 2 mps 749 mmHg 95%
02:00 +8°C° 0 mm 2 mps 749 mmHg 95%
03:00 +8°C° 0 mm 2 mps 749 mmHg 95%
04:00 +8°C° 0 mm 2 mps 749 mmHg 96%
05:00 +9°C° 0 mm 3 mps 750 mmHg 92%
06:00 +10°C° 0 mm 3 mps 750 mmHg 88%
07:00 +11°C° 0 mm 3 mps 750 mmHg 85%
08:00 +12°C° 0.1 mm 3 mps 750 mmHg 79%
09:00 +14°C° 0.1 mm 4 mps 750 mmHg 74%
10:00 +15°C° 0.1 mm 4 mps 750 mmHg 69%
11:00 +15°C° 0.5 mm 4 mps 750 mmHg 68%
12:00 +16°C° 0.5 mm 3 mps 750 mmHg 67%
13:00 +16°C° 0.5 mm 3 mps 750 mmHg 67%
14:00 +16°C° 0.6 mm 3 mps 750 mmHg 67%
15:00 +15°C° 0.6 mm 4 mps 750 mmHg 67%
16:00 +15°C° 0.6 mm 4 mps 750 mmHg 68%
17:00 +14°C° 0.4 mm 3 mps 751 mmHg 74%
18:00 +13°C° 0.4 mm 3 mps 751 mmHg 80%
19:00 +11°C° 0.4 mm 3 mps 751 mmHg 86%
20:00 +10°C° 0 mm 3 mps 752 mmHg 88%
21:00 +9°C° 0 mm 2 mps 752 mmHg 91%
22:00 +8°C° 0 mm 2 mps 752 mmHg 93%
23:00 +7°C° 0 mm 2 mps 752 mmHg 93%

20 May, Thursday

Time Temperature Precipitation Wind Pressure Humidity
00:00 +5°C° 0 mm 3 mps 752 mmHg 93%
01:00 +5°C° 0 mm 3 mps 752 mmHg 93%
02:00 +5°C° 0 mm 3 mps 753 mmHg 93%
03:00 +4°C° 0 mm 3 mps 753 mmHg 93%
04:00 +5°C° 0 mm 2 mps 753 mmHg 93%
05:00 +7°C° 0 mm 3 mps 753 mmHg 89%
06:00 +7°C° 0 mm 4 mps 753 mmHg 84%
07:00 +9°C° 0 mm 5 mps 753 mmHg 80%
08:00 +10°C° 0 mm 5 mps 753 mmHg 73%
09:00 +13°C° 0 mm 5 mps 753 mmHg 67%
10:00 +14°C° 0 mm 6 mps 753 mmHg 60%
11:00 +15°C° 0 mm 6 mps 753 mmHg 57%
12:00 +16°C° 0 mm 6 mps 753 mmHg 55%
13:00 +16°C° 0 mm 6 mps 752 mmHg 52%
14:00 +16°C° 0.1 mm 6 mps 753 mmHg 58%
15:00 +15°C° 0.1 mm 6 mps 753 mmHg 63%
16:00 +14°C° 0.1 mm 6 mps 753 mmHg 68%
17:00 +13°C° 0.1 mm 6 mps 753 mmHg 70%
18:00 +11°C° 0.1 mm 6 mps 753 mmHg 72%
19:00 +9°C° 0.1 mm 5 mps 753 mmHg 74%
20:00 +8°C° 0 mm 5 mps 754 mmHg 75%
21:00 +6°C° 0 mm 4 mps 754 mmHg 77%
22:00 +5°C° 0 mm 3 mps 754 mmHg 79%
23:00 +5°C° 0 mm 4 mps 754 mmHg 82%

21 May, Friday

Time Temperature Precipitation Wind Pressure Humidity
00:00 +4°C° 0 mm 4 mps 754 mmHg 85%
01:00 +3°C° 0 mm 5 mps 754 mmHg 88%
02:00 +3°C° 0 mm 5 mps 754 mmHg 89%
03:00 +3°C° 0 mm 5 mps 754 mmHg 90%
04:00 +2°C° 0 mm 5 mps 754 mmHg 90%
05:00 +3°C° 0 mm 5 mps 754 mmHg 85%
06:00 +5°C° 0 mm 6 mps 754 mmHg 79%
07:00 +7°C° 0 mm 6 mps 754 mmHg 74%
08:00 +8°C° 0 mm 6 mps 754 mmHg 69%
09:00 +8°C° 0 mm 6 mps 754 mmHg 64%
10:00 +9°C° 0 mm 5 mps 754 mmHg 59%
11:00 +10°C° 0 mm 6 mps 753 mmHg 56%
12:00 +11°C° 0 mm 6 mps 753 mmHg 52%
13:00 +12°C° 0 mm 7 mps 753 mmHg 49%
14:00 +12°C° 0 mm 7 mps 753 mmHg 52%
15:00 +12°C° 0 mm 7 mps 753 mmHg 55%
16:00 +13°C° 0 mm 6 mps 753 mmHg 58%
17:00 +12°C° 0 mm 5 mps 753 mmHg 64%
18:00 +11°C° 0 mm 4 mps 752 mmHg 70%
19:00 +10°C° 0 mm 3 mps 752 mmHg 75%
20:00 +9°C° 0 mm 3 mps 752 mmHg 78%
21:00 +8°C° 0 mm 3 mps 752 mmHg 81%
22:00 +7°C° 0 mm 2 mps 752 mmHg 84%
23:00 +8°C° 0 mm 3 mps 752 mmHg 84%

22 May, Saturday

Time Temperature Precipitation Wind Pressure Humidity
00:00 +8°C° 0 mm 3 mps 752 mmHg 84%
01:00 +9°C° 0 mm 3 mps 751 mmHg 84%
02:00 +9°C° 0.1 mm 3 mps 751 mmHg 86%
03:00 +9°C° 0.1 mm 3 mps 751 mmHg 89%
04:00 +9°C° 0.1 mm 3 mps 751 mmHg 92%
05:00 +9°C° 0 mm 3 mps 750 mmHg 91%
06:00 +10°C° 0 mm 3 mps 750 mmHg 91%
07:00 +11°C° 0 mm 4 mps 750 mmHg 91%
08:00 +12°C° 0 mm 4 mps 750 mmHg 83%
09:00 +14°C° 0 mm 5 mps 749 mmHg 75%
10:00 +16°C° 0 mm 6 mps 749 mmHg 67%
11:00 +17°C° 0 mm 6 mps 749 mmHg 64%
12:00 +19°C° 0 mm 6 mps 749 mmHg 62%
13:00 +19°C° 0 mm 6 mps 749 mmHg 59%
14:00 +19°C° 0.3 mm 6 mps 749 mmHg 65%
15:00 +17°C° 0.3 mm 6 mps 749 mmHg 72%
16:00 +16°C° 0.3 mm 6 mps 749 mmHg 78%
17:00 +15°C° 0.5 mm 5 mps 749 mmHg 81%
18:00 +14°C° 0.5 mm 5 mps 749 mmHg 83%
19:00 +13°C° 0.5 mm 5 mps 750 mmHg 86%
20:00 +12°C° 0.1 mm 4 mps 750 mmHg 88%
21:00 +12°C° 0.1 mm 3 mps 750 mmHg 91%
22:00 +11°C° 0.1 mm 3 mps 750 mmHg 93%
23:00 +10°C° 0.1 mm 3 mps 750 mmHg 93%
Show more